Radiation Dose at Monitoring Post of Fukushima Daini Nuclear Power Station
Date,Time,MP-1(microSv/h),MP-2(microSv/h),MP-3(microSv/h),MP-4(microSv/h),MP-5(microSv/h),MP-6(microSv/h),MP-7(microSv/h),Wind Direction,Wind Velocity(m/s),Rain
2021/12/19,00:00,0.156,0.142,0.222,0.217,0.224,0.122,0.077,west,2.1,No
2021/12/19,00:10,0.156,0.142,0.222,0.218,0.223,0.122,0.077,west,1.7,No
2021/12/19,00:20,0.156,0.142,0.222,0.218,0.223,0.121,0.078,northwest,1.9,No
2021/12/19,00:30,0.155,0.143,0.222,0.217,0.222,0.121,0.078,northwest,1.4,No
2021/12/19,00:40,0.156,0.143,0.222,0.218,0.223,0.122,0.078,-,CALM,No
2021/12/19,00:50,0.156,0.141,0.222,0.217,0.223,0.122,0.077,-,CALM,No
2021/12/19,01:00,0.157,0.142,0.222,0.218,0.224,0.121,0.078,northwest,1.6,No
2021/12/19,01:10,0.157,0.143,0.222,0.218,0.224,0.121,0.078,-,CALM,No
2021/12/19,01:20,0.156,0.142,0.223,0.218,0.223,0.121,0.077,west-northwest,0.9,No
2021/12/19,01:30,0.156,0.142,0.222,0.218,0.224,0.121,0.077,west,1.1,No
2021/12/19,01:40,0.155,0.142,0.222,0.218,0.222,0.121,0.078,west-northwest,1.7,No
2021/12/19,01:50,0.156,0.142,0.223,0.219,0.222,0.122,0.077,north-northwest,1.7,No
2021/12/19,02:00,0.156,0.142,0.223,0.218,0.223,0.122,0.077,south,1.4,No
2021/12/19,02:10,0.157,0.142,0.223,0.218,0.223,0.121,0.078,south-southwest,2.3,No
2021/12/19,02:20,0.157,0.142,0.222,0.217,0.223,0.122,0.077,south-southwest,2.5,No
2021/12/19,02:30,0.157,0.142,0.223,0.218,0.223,0.122,0.078,south-southwest,3.4,No
2021/12/19,02:40,0.155,0.141,0.221,0.218,0.225,0.122,0.078,southwest,3.7,No
2021/12/19,02:50,0.156,0.142,0.222,0.218,0.223,0.122,0.077,south-southwest,2.3,No
2021/12/19,03:00,0.156,0.143,0.222,0.218,0.222,0.121,0.078,west-southwest,2.5,No
2021/12/19,03:10,0.156,0.142,0.223,0.218,0.223,0.122,0.077,southwest,1.8,No
2021/12/19,03:20,0.157,0.143,0.222,0.218,0.223,0.121,0.078,southwest,3.5,No
2021/12/19,03:30,0.156,0.142,0.222,0.219,0.224,0.123,0.078,southwest,4.6,No
2021/12/19,03:40,0.156,0.143,0.222,0.219,0.223,0.121,0.077,southwest,5.6,No
2021/12/19,03:50,0.157,0.142,0.223,0.217,0.224,0.122,0.078,southwest,5.1,No
2021/12/19,04:00,0.156,0.143,0.223,0.218,0.223,0.121,0.077,south-southwest,5.0,No
2021/12/19,04:10,0.156,0.142,0.223,0.217,0.223,0.121,0.078,southwest,4.2,No
2021/12/19,04:20,0.156,0.141,0.222,0.217,0.224,0.122,0.077,southwest,5.4,No
2021/12/19,04:30,0.155,0.142,0.222,0.219,0.223,0.122,0.077,southwest,5.8,No
2021/12/19,04:40,0.156,0.142,0.222,0.217,0.223,0.122,0.078,west-southwest,6.5,No
2021/12/19,04:50,0.156,0.142,0.221,0.218,0.222,0.122,0.078,west-southwest,7.9,No
2021/12/19,05:00,0.156,0.142,0.222,0.218,0.223,0.121,0.078,west-southwest,6.2,No
2021/12/19,05:10,0.156,0.142,0.222,0.218,0.224,0.122,0.077,west,4.0,No
2021/12/19,05:20,0.156,0.143,0.221,0.217,0.223,0.122,0.078,west,4.2,No
2021/12/19,05:30,0.157,0.143,0.223,0.218,0.225,0.122,0.078,west-southwest,5.3,No
2021/12/19,05:40,0.157,0.141,0.222,0.217,0.224,0.122,0.078,west-southwest,6.5,No
2021/12/19,05:50,0.156,0.142,0.221,0.217,0.223,0.122,0.078,west-southwest,5.8,No
2021/12/19,06:00,0.157,0.142,0.223,0.218,0.222,0.122,0.078,west-southwest,6.1,No
2021/12/19,06:10,0.157,0.142,0.222,0.218,0.222,0.121,0.078,west-southwest,5.6,No
2021/12/19,06:20,0.156,0.143,0.221,0.217,0.223,0.122,0.078,west-southwest,4.6,No
2021/12/19,06:30,0.155,0.142,0.221,0.218,0.222,0.122,0.079,west-southwest,4.1,No
2021/12/19,06:40,0.156,0.141,0.223,0.218,0.223,0.122,0.077,west-southwest,3.7,No
2021/12/19,06:50,0.156,0.142,0.222,0.217,0.222,0.120,0.078,west-southwest,3.5,No
2021/12/19,07:00,0.156,0.142,0.221,0.218,0.222,0.121,0.077,west,3.2,No
2021/12/19,07:10,0.155,0.143,0.223,0.218,0.222,0.121,0.078,west-northwest,2.9,No
2021/12/19,07:20,0.156,0.141,0.223,0.217,0.224,0.122,0.078,west-northwest,3.7,No
2021/12/19,07:30,0.156,0.142,0.221,0.218,0.222,0.121,0.077,northwest,4.5,No
2021/12/19,07:40,0.156,0.141,0.221,0.217,0.222,0.121,0.077,northwest,4.8,No
2021/12/19,07:50,0.156,0.142,0.222,0.217,0.222,0.121,0.078,northwest,5.2,No
2021/12/19,08:00,0.156,0.142,0.221,0.218,0.223,0.122,0.077,northwest,5.2,No
2021/12/19,08:10,0.157,0.142,0.222,0.217,0.223,0.122,0.077,northwest,4.2,No
2021/12/19,08:20,0.156,0.142,0.222,0.218,0.222,0.122,0.078,west,2.1,No
2021/12/19,08:30,0.156,0.142,0.223,0.216,0.222,0.122,0.078,west-northwest,0.9,No
2021/12/19,08:40,0.156,0.142,0.222,0.216,0.221,0.121,0.078,-,CALM,No
2021/12/19,08:50,0.156,0.141,0.221,0.216,0.223,0.121,0.078,southwest,1.0,No
2021/12/19,09:00,0.156,0.142,0.222,0.217,0.223,0.121,0.078,south-southwest,2.4,No
2021/12/19,09:10,0.156,0.142,0.223,0.218,0.223,0.122,0.077,south-southwest,2.9,No
2021/12/19,09:20,0.156,0.142,0.222,0.218,0.222,0.122,0.078,south,3.6,No
2021/12/19,09:30,0.156,0.142,0.222,0.217,0.223,0.122,0.078,south,2.7,No
2021/12/19,09:40,0.157,0.141,0.221,0.217,0.223,0.123,0.078,south-southeast,3.5,No
2021/12/19,09:50,0.155,0.142,0.222,0.219,0.223,0.123,0.077,south,3.7,No
2021/12/19,10:00,0.157,0.141,0.223,0.218,0.223,0.122,0.078,south,5.4,No
2021/12/19,10:10,0.157,0.142,0.222,0.219,0.223,0.122,0.078,south,5.7,No
2021/12/19,10:20,0.156,0.141,0.222,0.220,0.223,0.122,0.077,south,5.8,No
2021/12/19,10:30,0.155,0.142,0.221,0.219,0.223,0.122,0.078,south,5.2,No
2021/12/19,10:40,0.154,0.142,0.222,0.218,0.223,0.122,0.078,south,6.1,No
2021/12/19,10:50,0.157,0.141,0.221,0.219,0.224,0.122,0.078,south,6.3,No
2021/12/19,11:00,0.156,0.142,0.221,0.217,0.224,0.122,0.077,south-southeast,6.5,No
2021/12/19,11:10,0.155,0.141,0.222,0.217,0.222,0.122,0.078,south,6.5,No
2021/12/19,11:20,0.156,0.141,0.221,0.218,0.224,0.122,0.078,south,5.4,No
2021/12/19,11:30,0.155,0.142,0.222,0.218,0.223,0.123,0.078,south,5.4,No
2021/12/19,11:40,0.156,0.141,0.223,0.218,0.224,0.122,0.077,south-southeast,4.7,No
2021/12/19,11:50,0.155,0.142,0.223,0.218,0.223,0.122,0.077,south-southeast,4.9,No
2021/12/19,12:00,0.155,0.142,0.222,0.219,0.224,0.123,0.078,south-southeast,5.3,No
2021/12/19,12:10,0.156,0.142,0.221,0.219,0.226,0.122,0.078,south-southeast,6.1,No
2021/12/19,12:20,0.155,0.143,0.223,0.218,0.223,0.122,0.078,south-southeast,4.8,No
2021/12/19,12:30,0.157,0.142,0.222,0.219,0.225,0.122,0.077,south-southeast,4.2,No
2021/12/19,12:40,0.155,0.142,0.223,0.218,0.225,0.122,0.077,south-southeast,5.4,No
2021/12/19,12:50,0.155,0.142,0.222,0.219,0.223,0.122,0.078,south-southeast,4.6,No
2021/12/19,13:00,0.156,0.142,0.222,0.218,0.225,0.122,0.078,southeast,3.4,No
2021/12/19,13:10,0.155,0.142,0.222,0.218,0.225,0.122,0.078,south-southeast,4.8,No
2021/12/19,13:20,0.156,0.143,0.224,0.219,0.224,0.122,0.078,south-southeast,4.4,No
2021/12/19,13:30,0.156,0.142,0.222,0.219,0.224,0.122,0.078,south-southeast,3.9,No
2021/12/19,13:40,0.157,0.142,0.223,0.219,0.224,0.122,0.077,south,4.1,No
2021/12/19,13:50,0.156,0.143,0.222,0.219,0.225,0.123,0.077,south-southeast,3.6,No
2021/12/19,14:00,0.156,0.142,0.222,0.218,0.224,0.123,0.078,south-southeast,3.7,No
2021/12/19,14:10,0.156,0.143,0.222,0.218,0.224,0.122,0.078,south-southeast,2.5,No
2021/12/19,14:20,0.156,0.143,0.222,0.218,0.225,0.122,0.077,south,1.2,No
2021/12/19,14:30,0.157,0.142,0.222,0.220,0.224,0.123,0.078,south-southwest,1.0,No
2021/12/19,14:40,0.156,0.142,0.223,0.218,0.225,0.122,0.077,southwest,0.7,No
2021/12/19,14:50,0.156,0.144,0.223,0.219,0.225,0.121,0.078,-,CALM,No
2021/12/19,15:00,0.156,0.143,0.222,0.219,0.225,0.122,0.079,north-northwest,1.1,No
2021/12/19,15:10,0.156,0.142,0.222,0.218,0.225,0.122,0.079,-,CALM,No
2021/12/19,15:20,0.156,0.143,0.223,0.219,0.225,0.121,0.078,south-southwest,1.2,No
2021/12/19,15:30,0.157,0.143,0.224,0.218,0.224,0.122,0.078,west-southwest,2.4,No
2021/12/19,15:40,0.157,0.142,0.223,0.220,0.225,0.122,0.078,west-southwest,3.7,No
2021/12/19,15:50,0.157,0.143,0.223,0.219,0.223,0.122,0.078,west,4.0,No
2021/12/19,16:00,0.157,0.143,0.224,0.221,0.223,0.122,0.078,west,4.2,No
2021/12/19,16:10,0.157,0.142,0.223,0.220,0.224,0.122,0.078,west-northwest,3.6,No
2021/12/19,16:20,0.157,0.142,0.224,0.220,0.224,0.122,0.078,northwest,4.8,No
2021/12/19,16:30,0.156,0.142,0.223,0.218,0.224,0.123,0.078,west-northwest,4.4,No
2021/12/19,16:40,0.157,0.144,0.222,0.220,0.224,0.123,0.077,west-northwest,4.0,No
2021/12/19,16:50,0.157,0.142,0.224,0.219,0.224,0.123,0.078,northwest,2.2,No
2021/12/19,17:00,0.158,0.143,0.223,0.218,0.224,0.122,0.078,north-northwest,0.7,No
2021/12/19,17:10,0.157,0.143,0.223,0.219,0.223,0.122,0.078,-,CALM,No
2021/12/19,17:20,0.157,0.143,0.222,0.220,0.224,0.122,0.079,north,1.9,No
2021/12/19,17:30,0.156,0.143,0.224,0.218,0.225,0.123,0.078,north-northwest,3.7,No
2021/12/19,17:40,0.158,0.142,0.224,0.218,0.224,0.122,0.079,north-northwest,3.8,No
2021/12/19,17:50,0.157,0.142,0.223,0.219,0.225,0.123,0.078,northwest,3.3,No
2021/12/19,18:00,0.158,0.143,0.224,0.219,0.223,0.122,0.079,northwest,3.9,No
2021/12/19,18:10,0.158,0.142,0.223,0.220,0.224,0.122,0.078,northwest,3.5,No
2021/12/19,18:20,0.157,0.143,0.224,0.220,0.226,0.122,0.078,northwest,2.9,No
2021/12/19,18:30,0.156,0.143,0.223,0.219,0.225,0.123,0.078,west,4.3,No
2021/12/19,18:40,0.158,0.144,0.225,0.219,0.224,0.122,0.078,northwest,2.8,No
2021/12/19,18:50,0.158,0.143,0.223,0.218,0.225,0.123,0.078,west-northwest,2.5,No
2021/12/19,19:00,0.157,0.143,0.224,0.220,0.224,0.123,0.077,west,4.6,No
2021/12/19,19:10,0.156,0.143,0.223,0.219,0.225,0.122,0.078,west-northwest,5.9,No
2021/12/19,19:20,0.157,0.143,0.224,0.219,0.224,0.122,0.078,west-northwest,7.8,No
2021/12/19,19:30,0.156,0.142,0.224,0.219,0.224,0.122,0.078,west,8.5,No
2021/12/19,19:40,0.158,0.142,0.224,0.219,0.224,0.122,0.078,west,7.1,No
2021/12/19,19:50,0.156,0.142,0.223,0.219,0.223,0.122,0.078,west,6.6,No
2021/12/19,20:00,0.157,0.144,0.224,0.220,0.224,0.123,0.077,west-northwest,6.3,No
2021/12/19,20:10,0.156,0.143,0.222,0.218,0.225,0.122,0.078,west-northwest,8.1,No
2021/12/19,20:20,0.157,0.142,0.223,0.219,0.224,0.122,0.078,west-northwest,9.0,No
2021/12/19,20:30,0.157,0.144,0.223,0.219,0.225,0.123,0.078,northwest,6.0,No
2021/12/19,20:40,0.157,0.142,0.223,0.221,0.223,0.122,0.078,northwest,4.7,No
2021/12/19,20:50,0.156,0.144,0.223,0.219,0.224,0.122,0.078,west-northwest,4.3,No
2021/12/19,21:00,0.156,0.144,0.224,0.219,0.225,0.122,0.078,northwest,3.5,No
2021/12/19,21:10,0.157,0.142,0.223,0.220,0.224,0.122,0.078,northwest,3.5,No
2021/12/19,21:20,0.156,0.143,0.223,0.220,0.224,0.123,0.077,west-northwest,3.9,No
2021/12/19,21:30,0.157,0.143,0.224,0.218,0.224,0.122,0.079,northwest,3.6,No
2021/12/19,21:40,0.157,0.143,0.225,0.219,0.225,0.122,0.078,north-northwest,3.6,No
2021/12/19,21:50,0.157,0.143,0.224,0.219,0.224,0.122,0.078,northwest,3.8,No
2021/12/19,22:00,0.157,0.142,0.223,0.219,0.224,0.122,0.078,northwest,3.1,No
2021/12/19,22:10,0.156,0.143,0.223,0.220,0.225,0.122,0.078,west-northwest,2.6,No
2021/12/19,22:20,0.156,0.143,0.222,0.220,0.224,0.123,0.078,west-northwest,2.9,No
2021/12/19,22:30,0.157,0.143,0.223,0.220,0.224,0.123,0.078,west-northwest,3.0,No
2021/12/19,22:40,0.156,0.143,0.224,0.219,0.224,0.123,0.078,west-northwest,3.1,No
2021/12/19,22:50,0.157,0.143,0.223,0.219,0.225,0.123,0.078,west-northwest,2.1,No
2021/12/19,23:00,0.157,0.143,0.223,0.219,0.223,0.122,0.079,west-northwest,4.0,No
2021/12/19,23:10,0.156,0.143,0.224,0.220,0.224,0.122,0.078,west-northwest,4.3,No
2021/12/19,23:20,0.156,0.143,0.224,0.220,0.225,0.122,0.079,west-northwest,4.6,No
2021/12/19,23:30,0.157,0.143,0.224,0.219,0.224,0.122,0.078,west-northwest,4.3,No
2021/12/19,23:40,0.156,0.143,0.224,0.219,0.224,0.122,0.079,west-northwest,4.4,No
2021/12/19,23:50,0.157,0.143,0.224,0.219,0.224,0.122,0.079,west-northwest,4.4,No
